Friday Harbor, WA
on Friday, January 11, 2013

Friday
Previous Day Next Day
Daily Summary
 ActualAverageRecord
Temperature
Mean Temperature °F °F  
Max Temperature 37°F 43°F 53°F (2002)
Min Temperature 25°F 35°F 18°F (1998)
Degree Days
Heating Degree Days 34    
Moisture
Dew Point 20°F   
Average Humidity 64    
Maximum Humidity 89    
Minimum Humidity 44    
Precipitation
Precipitation 0.00 in in in ()
Wind
Wind Speed 6 mph   
Max Wind Speed 12 mph   
Max Gust Speed 18 mph   
Visibility 10 miles   
Events     
Averages and records for this station are not official NWS values.
Key: T is trace of precipitation, MM is missing value
Source: NWS Daily Summary
Seasonal Weather Averages
Time(PST)TemperatureDew PointHumidity Pressure Visibility Wind DirectionWind SpeedGust SpeedPrecipitationEvents Conditions
12:53 AM 33.1°F 23.0°F 66% 30.17 in 10.0 miles NNW 4.6 mph - N/A   Clear
1:53 AM 33.1°F 23.0°F 66% 30.18 in 10.0 miles North 6.9 mph - N/A   Clear
2:53 AM 33.1°F 23.0°F 66% 30.19 in 10.0 miles North 5.8 mph - N/A   Clear
3:53 AM 33.1°F 21.0°F 61% 30.21 in 10.0 miles North 9.2 mph 17.3 mph N/A   Clear
4:53 AM 33.1°F 21.0°F 61% 30.22 in 10.0 miles North 9.2 mph - N/A   Clear
5:53 AM 32.0°F 19.0°F 59% 30.23 in 10.0 miles Variable 3.5 mph - N/A   Clear
6:53 AM 33.1°F 18.0°F 54% 30.26 in 10.0 miles North 5.8 mph - N/A   Clear
7:53 AM 32.0°F 19.0°F 59% 30.28 in 10.0 miles North 5.8 mph - N/A   Clear
8:53 AM 33.1°F 21.0°F 61% 30.30 in 10.0 miles North 8.1 mph - N/A   Clear
9:53 AM 35.1°F 18.0°F 50% 30.32 in 10.0 miles North 11.5 mph 17.3 mph N/A   Clear
10:53 AM 36.0°F 18.0°F 48% 30.33 in 10.0 miles North 10.4 mph - N/A   Clear
12:53 PM 37.0°F 17.1°F 44% 30.32 in 10.0 miles North 11.5 mph 18.4 mph N/A   Clear
1:53 PM 37.0°F 17.1°F 44% 30.31 in 10.0 miles NNE 10.4 mph - N/A   Clear
2:53 PM 37.0°F 18.0°F 46% 30.33 in 10.0 miles North 9.2 mph - N/A   Clear
3:53 PM 35.1°F 19.9°F 54% 30.33 in 10.0 miles NNE 5.8 mph - N/A   Clear
4:53 PM 30.9°F 19.9°F 64% 30.34 in 10.0 miles Calm Calm - N/A   Clear
5:53 PM 28.0°F 21.9°F 78% 30.33 in 10.0 miles Calm Calm - N/A   Clear
6:53 PM 27.0°F 21.9°F 81% 30.33 in 10.0 miles Calm Calm - N/A   Clear
7:53 PM 27.0°F 21.9°F 81% 30.33 in 10.0 miles Calm Calm - N/A   Clear
8:53 PM 26.1°F 23.0°F 88% 30.33 in 10.0 miles Calm Calm - N/A   Clear
9:53 PM 25.0°F 21.9°F 88% 30.34 in 10.0 miles Calm Calm - N/A   Clear
10:53 PM 27.0°F 24.1°F 89% 30.33 in 10.0 miles Calm Calm - N/A   Clear
Moon Phase
Jan. 11 Jan. 18 Jan. 26 Feb. 03 Feb. 10
Sunrise:08:01 AM (PST) Moon Rise:07:34 AM (PST)1/11
Sunset:04:39 PM (PST) Moon Set:05:09 PM (PST)1/11

Copyright © 2014 The Weather Underground, Inc.